This is the latest recevied weather packets stored in our database for station/object W3JGB. If no packets are shown the sender has not sent any weather packets the latest 10 day(s).
| Time | Temp. | Humidity | Pressure | Rain* | Wind** | Luminosity | Snow |
|---|---|---|---|---|---|---|---|
| 1778259527 | 18.33° C | 45% | 1010.8 hPa | 0 mm | - | 342 W/m² | - |
| 1778259225 | 17.22° C | 48% | 1010.9 hPa | 0 mm | - | 506 W/m² | - |
| 1778258920 | 16.67° C | 45% | 1011.1 hPa | 0 mm | - | 352 W/m² | - |
| 1778258618 | 16.67° C | 44% | 1010.9 hPa | 0 mm | - | 220 W/m² | - |
| 1778258316 | 17.22° C | 48% | 1011 hPa | 0 mm | - | 250 W/m² | - |
| 1778258014 | 16.11° C | 51% | 1010.9 hPa | 0 mm | - | 613 W/m² | - |
| 1778257708 | 16.67° C | 48% | 1011 hPa | 0 mm | - | 524 W/m² | - |
| 1778257406 | 16.11° C | 51% | 1011 hPa | 0 mm | - | 532 W/m² | - |
| 1778257103 | 15.56° C | 54% | 1011.1 hPa | 0 mm | - | 229 W/m² | - |
| 1778256800 | 15.56° C | 53% | 1011.4 hPa | 0 mm | - | 229 W/m² | - |
| 1778256497 | 15° C | 50% | 1011.5 hPa | 0 mm | - | 186 W/m² | - |
| 1778256196 | 14.44° C | 53% | 1011.8 hPa | 0 mm | - | 373 W/m² | - |
| 1778255892 | 13.89° C | 55% | 1011.8 hPa | 0 mm | - | 201 W/m² | - |
| 1778255589 | 13.89° C | 57% | 1011.9 hPa | 0 mm | - | 124 W/m² | - |
| 1778255286 | 13.89° C | 54% | 1011.8 hPa | 0 mm | - | 75 W/m² | - |
| 1778254984 | 13.89° C | 58% | 1011.6 hPa | 0 mm | - | 150 W/m² | - |
| 1778254679 | 13.89° C | 54% | 1011.8 hPa | 0 mm | - | 216 W/m² | - |
| 1778254377 | 13.89° C | 55% | 1012 hPa | 0 mm | - | 156 W/m² | - |
| 1778254073 | 13.89° C | 57% | 1011.9 hPa | 0 mm | - | 150 W/m² | - |
| 1778253769 | 13.89° C | 57% | 1011.8 hPa | 0 mm | - | 136 W/m² | - |
| 1778253466 | 13.89° C | 56% | 1011.8 hPa | 0 mm | - | 125 W/m² | - |
| 1778253163 | 13.89° C | 55% | 1011.8 hPa | 0 mm | - | 120 W/m² | - |
| 1778252859 | 13.89° C | 55% | 1011.7 hPa | 0 mm | - | 203 W/m² | - |
| 1778252556 | 13.89° C | 54% | 1011.6 hPa | 0 mm | - | 193 W/m² | - |
| 1778252253 | 13.89° C | 54% | 1011.7 hPa | 0 mm | - | 124 W/m² | - |
* Rain latest hour (hover to see other rain measurements)
** Current wind speed in m/s (hover to see current wind gust speed)